NWS Melbourne » East Central Florida Hourly Weather Roundup

 

ASUS42 KMLB 031012
RWRMLB
HOURLY WEATHER ROUNDUP AROUND FLORIDA
NATIONAL WEATHER SERVICE OFFICE MELBOURNE FL
600 AM EDT MON AUG 03 2015
  
CITY           SKY/WX    TMP DP  RH WIND       PRES   REMARKS
MELBOURNE      MOCLDY    74  71  91 S6        29.92R                  
FORT PIERCE    PTCLDY    74  68  81 S5        29.93R                  
ORLANDO INTL   MOCLDY    75  72  90 S10       29.90S                  
DAYTONA BEACH  CLOUDY    74  70  87 S9        29.89R                  
VERO BEACH     PTCLDY    73  67  81 S7        29.93R                  
$$
...ELSEWHERE ACROSS CENTRAL FLORIDA...
  
CITY           SKY/WX    TMP DP  RH WIND       PRES   REMARKS
PATRICK AFB    MOCLDY    75  72  88 S10       29.91S                  
KSC            MOCLDY    74  70  86 S6        29.90R                  
CAPE CANAVERAL MOCLDY    75  73  93 S8        29.90S                  
ORLANDO EXEC   MOCLDY    75  72  90 S12       29.89S                  
LEESBURG       CLOUDY    78  71  79 S14       29.87S                  
THE VILLAGES     N/A     77  77 100 S12       29.76R                  
SANFORD        PTCLDY    74  71  91 S8        29.89R                  
DELAND           N/A     73  72  94 S8        29.89S                  
WINTER HAVEN   CLOUDY    76  71  85 S9        29.91S                  
OKEECHOBEE     MOCLDY   N/A N/A N/A S5        29.94R                  
TAMPA          CLOUDY    78  74  87 S17G25    29.89R THUNDER          
$$
...NORTHERN FLORIDA...
  
CITY           SKY/WX    TMP DP  RH WIND       PRES   REMARKS
PALM COAST     MOSUNNY   75  70  83 S10       29.87R                  
ST AUGUSTINE   CLOUDY    77  71  82 S10       29.86R                  
OCALA          CLOUDY    75  72  88 S10G17    29.84R                  
GAINESVILLE    CLOUDY    75  73  93 S10       29.81S                  
JACKSONVILLE   MOCLDY    76  71  85 SE8       29.84S                  
TALLAHASSEE    PTCLDY    78  75  90 N3        29.84R                  
$$
...ALONG THE SOUTHEAST COAST TO THE KEYS...
  
CITY           SKY/WX    TMP DP  RH WIND       PRES   REMARKS
STUART         PTCLDY    72  66  83 S3        29.94S                  
WEST PALM BCH  PTCLDY    74  70  87 CALM      29.94F                  
MIAMI          PTCLDY    80  74  81 S3        29.94R                  
KEY WEST       CLEAR     82  72  71 SE5       29.94S                  
$$
...MARINE REPORTS...
  
STATION/POSITION TIME  TEMP    WIND        PRES    WAVE   SWELL
                       AIR SEA DIR/SP/G            HT/PER HT/PER/DIR
                 (UTC) (F)     (DEG/KT/KT) (MB)    (FT/S) (FT/S/D)
ST AUGUSTINE FP  1000   77 78  180/ 16/ 18 1011.6R
20NM E CAPE CANA 0950   81 83  180/ 16/ 17 1013.3R   3/ 4   2/ 70/11
120 E NEW SMYRNA 0950   83 84  170/ 17/ 19 1014.0R   5/ 5   2/120/10
TRIDENT PIER     0948   75 78  170/  5/  8 1013.6R
SEBASTIAN INLET  1000   75     190/  7     1014.0
4NM E PORT CANAV 0940      76                N/A     2/ 4
6NM NE FPR INLET 0951      79                N/A     2/10
SETTLEMENT PT GB 1000   82     170/ 10/ 13 1014.6S
$$
 

 

Link to: East Central Florida Hourly Weather Roundup


USA.gov is the U.S. government's official web portal to all federal, state and local government web resources and services.